TimeEST,TemperatureF,Dew PointF,Humidity,Sea Level PressureIn,VisibilityMPH,Wind Direction,Wind SpeedMPH,Gust SpeedMPH,PrecipitationIn,Events,Conditions,WindDirDegrees,DateUTC
12:51 AM,39.9,18.0,41,30.17,10.0,South,5.8,-,N/A,,Mostly Cloudy,180,2013-11-15 05:51:00
1:51 AM,39.9,19.0,43,30.17,10.0,SSE,4.6,-,N/A,,Overcast,160,2013-11-15 06:51:00
2:51 AM,39.9,18.0,41,30.17,10.0,South,5.8,-,N/A,,Clear,170,2013-11-15 07:51:00
3:51 AM,39.9,18.0,41,30.16,10.0,South,4.6,-,N/A,,Clear,170,2013-11-15 08:51:00
4:51 AM,39.9,19.0,43,30.18,10.0,South,3.5,-,N/A,,Clear,190,2013-11-15 09:51:00
5:51 AM,39.9,19.0,43,30.17,10.0,South,4.6,-,N/A,,Partly Cloudy,180,2013-11-15 10:51:00
6:51 AM,41.0,19.0,41,30.18,10.0,South,6.9,-,N/A,,Scattered Clouds,190,2013-11-15 11:51:00
7:51 AM,42.1,19.9,41,30.19,10.0,South,8.1,-,N/A,,Mostly Cloudy,190,2013-11-15 12:51:00
8:51 AM,44.1,19.9,38,30.20,10.0,South,11.5,19.6,N/A,,Mostly Cloudy,190,2013-11-15 13:51:00
9:51 AM,46.9,21.0,36,30.20,10.0,SSW,8.1,-,N/A,,Overcast,200,2013-11-15 14:51:00
10:51 AM,48.9,21.9,35,30.19,10.0,SW,12.7,-,N/A,,Mostly Cloudy,220,2013-11-15 15:51:00
11:51 AM,51.1,24.1,35,30.17,10.0,SSW,12.7,-,N/A,,Overcast,210,2013-11-15 16:51:00
12:51 PM,52.0,23.0,32,30.14,10.0,SW,10.4,20.7,N/A,,Mostly Cloudy,220,2013-11-15 17:51:00
1:51 PM,53.1,23.0,31,30.14,10.0,SSW,13.8,20.7,N/A,,Mostly Cloudy,200,2013-11-15 18:51:00
2:51 PM,53.1,25.0,34,30.14,10.0,SSW,13.8,-,N/A,,Overcast,210,2013-11-15 19:51:00
3:51 PM,52.0,28.0,40,30.12,9.0,SSW,10.4,-,N/A,,Overcast,200,2013-11-15 20:51:00
4:51 PM,52.0,26.1,37,30.12,10.0,SSW,8.1,-,N/A,,Overcast,210,2013-11-15 21:51:00
5:51 PM,50.0,27.0,41,30.12,10.0,South,4.6,-,N/A,,Overcast,190,2013-11-15 22:51:00
6:51 PM,50.0,28.0,43,30.13,10.0,South,4.6,-,N/A,,Overcast,190,2013-11-15 23:51:00
7:51 PM,50.0,28.9,44,30.13,10.0,SSE,4.6,-,N/A,,Overcast,160,2013-11-16 00:51:00
8:51 PM,48.0,30.0,50,30.14,10.0,South,3.5,-,N/A,,Mostly Cloudy,180,2013-11-16 01:51:00
9:51 PM,50.0,35.1,57,30.14,10.0,South,9.2,-,N/A,,Mostly Cloudy,190,2013-11-16 02:51:00
10:51 PM,46.9,37.0,68,30.16,10.0,South,6.9,-,N/A,,Mostly Cloudy,190,2013-11-16 03:51:00
11:51 PM,48.0,37.9,68,30.17,10.0,SSW,5.8,-,N/A,,Overcast,200,2013-11-16 04:51:00